FDX511 EGAA-EGPF

Flight info

Callsign FDX511
Flight time 0h 41m
Altitude 7000
Route BLACA
Aircraft C208/L-SDFGR/C

Departure

Time 2026-04-28 19:32
Airport Belfast International Airport (EGAA)

Arrival

Time 2026-04-28 20:14
Airport Glasgow Airport (EGPF)
Time Latitude Longitude Altitude Speed Heading
2026-04-28 19:04 54.65994 -6.22286 274 ft 0 kts 334°
2026-04-28 19:21 54.65986 -6.22279 274 ft 2 kts 334°
2026-04-28 19:21 54.65976 -6.22271 274 ft 0 kts 336°
2026-04-28 19:25 54.65985 -6.22273 274 ft 3 kts 15°
2026-04-28 19:25 54.65999 -6.22239 274 ft 3 kts 65°
2026-04-28 19:25 54.66005 -6.22201 274 ft 5 kts 119°
2026-04-28 19:26 54.65976 -6.22145 274 ft 6 kts 131°
2026-04-28 19:26 54.65938 -6.22079 274 ft 9 kts 154°
2026-04-28 19:26 54.65890 -6.22039 274 ft 6 kts 155°
2026-04-28 19:26 54.65832 -6.22011 274 ft 11 kts 199°
2026-04-28 19:27 54.65784 -6.22140 274 ft 16 kts 252°
2026-04-28 19:27 54.65762 -6.22349 274 ft 20 kts 262°
2026-04-28 19:27 54.65747 -6.22588 274 ft 14 kts 266°
2026-04-28 19:27 54.65741 -6.22744 274 ft 13 kts 265°
2026-04-28 19:28 54.65710 -6.22907 274 ft 15 kts 235°
2026-04-28 19:28 54.65637 -6.23073 274 ft 19 kts 232°
2026-04-28 19:28 54.65557 -6.23263 274 ft 13 kts 234°
2026-04-28 19:28 54.65474 -6.23361 274 ft 16 kts 198°
2026-04-28 19:29 54.65420 -6.23397 274 ft 0 kts 201°
2026-04-28 19:30 54.65408 -6.23404 274 ft 7 kts 196°
2026-04-28 19:31 54.65329 -6.23362 274 ft 16 kts 151°
2026-04-28 19:31 54.65322 -6.23175 274 ft 26 kts 65°
2026-04-28 19:31 54.65501 -6.22506 277 ft 93 kts 65°
2026-04-28 19:31 54.65830 -6.21405 472 ft 112 kts 62°
2026-04-28 19:32 54.66144 -6.20056 637 ft 129 kts 70°
2026-04-28 19:32 54.66453 -6.18590 811 ft 128 kts 70°
2026-04-28 19:32 54.66744 -6.17216 1066 ft 115 kts 70°
2026-04-28 19:32 54.67006 -6.15977 1336 ft 105 kts 70°
2026-04-28 19:33 54.67248 -6.14834 1614 ft 98 kts 70°
2026-04-28 19:33 54.67482 -6.13737 1913 ft 96 kts 70°
2026-04-28 19:33 54.67712 -6.12670 2207 ft 98 kts 69°
2026-04-28 19:33 54.67964 -6.11512 2536 ft 108 kts 69°
2026-04-28 19:34 54.68240 -6.10256 2862 ft 116 kts 69°
2026-04-28 19:34 54.68540 -6.08891 3181 ft 121 kts 69°
2026-04-28 19:34 54.68836 -6.07548 3482 ft 124 kts 69°
2026-04-28 19:34 54.69144 -6.06142 3785 ft 125 kts 69°
2026-04-28 19:35 54.69449 -6.04748 4084 ft 126 kts 69°
2026-04-28 19:35 54.69758 -6.03333 4386 ft 126 kts 69°
2026-04-28 19:35 54.70066 -6.01914 4686 ft 126 kts 69°
2026-04-28 19:35 54.70374 -6.00499 4983 ft 125 kts 69°
2026-04-28 19:36 54.70678 -5.99097 5292 ft 124 kts 69°
2026-04-28 19:36 54.70978 -5.97713 5603 ft 122 kts 69°
2026-04-28 19:36 54.71274 -5.96338 5893 ft 122 kts 69°
2026-04-28 19:36 54.71566 -5.94985 6192 ft 121 kts 70°
2026-04-28 19:37 54.71859 -5.93629 6503 ft 120 kts 69°
2026-04-28 19:37 54.72052 -5.92734 6701 ft 120 kts 69°
2026-04-28 19:37 54.72441 -5.90941 7118 ft 118 kts 69°
2026-04-28 19:37 54.72731 -5.89595 7359 ft 123 kts 69°
2026-04-28 19:38 54.73041 -5.88158 7474 ft 132 kts 69°
2026-04-28 19:38 54.73377 -5.86613 7500 ft 142 kts 69°
2026-04-28 19:38 54.73738 -5.84962 7500 ft 150 kts 69°
2026-04-28 19:38 54.74112 -5.83257 7501 ft 155 kts 69°
2026-04-28 19:39 54.74498 -5.81490 7502 ft 158 kts 69°
2026-04-28 19:39 54.74888 -5.79692 7498 ft 161 kts 69°
2026-04-28 19:39 54.75278 -5.77889 7489 ft 159 kts 69°
2026-04-28 19:39 54.75663 -5.76104 7492 ft 158 kts 69°
2026-04-28 19:40 54.76044 -5.74326 7490 ft 157 kts 69°
2026-04-28 19:40 54.76424 -5.72554 7491 ft 157 kts 69°
2026-04-28 19:40 54.76802 -5.70787 7488 ft 156 kts 69°
2026-04-28 19:40 54.77179 -5.69021 7490 ft 156 kts 69°
2026-04-28 19:41 54.77555 -5.67254 7491 ft 156 kts 69°
2026-04-28 19:41 54.77932 -5.65490 7492 ft 156 kts 69°
2026-04-28 19:41 54.78307 -5.63727 7492 ft 156 kts 69°
2026-04-28 19:41 54.78721 -5.61784 7491 ft 156 kts 69°
2026-04-28 19:42 54.79058 -5.60199 7491 ft 156 kts 69°
2026-04-28 19:42 54.79434 -5.58432 7491 ft 156 kts 69°
2026-04-28 19:42 54.79808 -5.56668 7491 ft 156 kts 69°
2026-04-28 19:42 54.80056 -5.55500 7491 ft 156 kts 69°
2026-04-28 19:43 54.80557 -5.53136 7491 ft 156 kts 69°
2026-04-28 19:43 54.80927 -5.51391 7491 ft 156 kts 69°
2026-04-28 19:43 54.81300 -5.49626 7491 ft 156 kts 69°
2026-04-28 19:43 54.81674 -5.47861 7491 ft 156 kts 69°
2026-04-28 19:44 54.82047 -5.46093 7490 ft 156 kts 70°
2026-04-28 19:44 54.82420 -5.44327 7490 ft 156 kts 70°
2026-04-28 19:44 54.82793 -5.42558 7490 ft 156 kts 70°
2026-04-28 19:44 54.83166 -5.40787 7490 ft 156 kts 70°
2026-04-28 19:45 54.83539 -5.39014 7490 ft 156 kts 70°
2026-04-28 19:45 54.83910 -5.37245 7490 ft 156 kts 67°
2026-04-28 19:45 54.84267 -5.35491 7490 ft 156 kts 70°
2026-04-28 19:45 54.84639 -5.33718 7490 ft 156 kts 69°
2026-04-28 19:46 54.85079 -5.31999 7497 ft 156 kts 61°
2026-04-28 19:46 54.85841 -5.30648 7487 ft 160 kts 35°
2026-04-28 19:46 54.86877 -5.29892 7487 ft 161 kts 28°
2026-04-28 19:46 54.87613 -5.28536 7494 ft 155 kts 64°
2026-04-28 19:47 54.88147 -5.26921 7490 ft 157 kts 47°
2026-04-28 19:47 54.89125 -5.26023 7500 ft 161 kts 24°
2026-04-28 19:47 54.90156 -5.25256 7492 ft 161 kts 28°
2026-04-28 19:47 54.91157 -5.24386 7490 ft 161 kts 31°
2026-04-28 19:48 54.92119 -5.23447 7490 ft 160 kts 33°
2026-04-28 19:48 54.93065 -5.22421 7490 ft 160 kts 36°
2026-04-28 19:48 54.93984 -5.21333 7490 ft 160 kts 38°
2026-04-28 19:48 54.94880 -5.20197 7490 ft 159 kts 39°
2026-04-28 19:49 54.95763 -5.19028 7490 ft 159 kts 40°
2026-04-28 19:49 54.96642 -5.17845 7490 ft 159 kts 40°
2026-04-28 19:49 54.97520 -5.16666 7493 ft 159 kts 40°
2026-04-28 19:49 54.98406 -5.15500 7490 ft 160 kts 39°
2026-04-28 19:50 55.00229 -5.13255 7488 ft 161 kts 36°
2026-04-28 19:50 55.01152 -5.12198 7489 ft 161 kts 35°
2026-04-28 19:50 55.02100 -5.11162 7487 ft 161 kts 34°
2026-04-28 19:51 55.03058 -5.10148 7489 ft 161 kts 33°
2026-04-28 19:51 55.04022 -5.09147 7490 ft 161 kts 33°
2026-04-28 19:51 55.04985 -5.08150 7490 ft 161 kts 33°
2026-04-28 19:51 55.05948 -5.07142 7490 ft 161 kts 34°
2026-04-28 19:52 55.06905 -5.06119 7490 ft 161 kts 34°
2026-04-28 19:52 55.07851 -5.05074 7490 ft 161 kts 36°
2026-04-28 19:52 55.08790 -5.04012 7490 ft 161 kts 36°
2026-04-28 19:52 55.09716 -5.02960 7490 ft 161 kts 36°
2026-04-28 19:53 55.10652 -5.01887 7490 ft 161 kts 36°
2026-04-28 19:53 55.11585 -5.00813 7490 ft 161 kts 36°
2026-04-28 19:53 55.12520 -4.99737 7491 ft 161 kts 36°
2026-04-28 19:53 55.13453 -4.98660 7489 ft 161 kts 34°
2026-04-28 19:54 55.14418 -4.97666 7491 ft 164 kts 22°
2026-04-28 19:54 55.15564 -4.97443 7503 ft 167 kts
2026-04-28 19:54 55.16732 -4.97451 7493 ft 168 kts
2026-04-28 19:54 55.17906 -4.97496 7491 ft 168 kts
2026-04-28 19:55 55.19079 -4.97555 7492 ft 168 kts
2026-04-28 19:55 55.20237 -4.97621 7491 ft 168 kts
2026-04-28 19:55 55.21410 -4.97668 7489 ft 168 kts
2026-04-28 19:55 55.22566 -4.97498 7495 ft 166 kts 10°
2026-04-28 19:56 55.23719 -4.97267 7492 ft 166 kts 10°
2026-04-28 19:56 55.24872 -4.97039 7492 ft 167 kts 10°
2026-04-28 19:56 55.26025 -4.96817 7491 ft 167 kts
2026-04-28 19:56 55.27180 -4.96597 7492 ft 167 kts 10°
2026-04-28 19:57 55.28331 -4.96355 7492 ft 166 kts 12°
2026-04-28 19:57 55.29461 -4.96046 7493 ft 166 kts 13°
2026-04-28 19:57 55.30604 -4.95718 7492 ft 166 kts 13°
2026-04-28 19:57 55.31744 -4.95388 7496 ft 166 kts 13°
2026-04-28 19:58 55.32885 -4.95058 7493 ft 166 kts 13°
2026-04-28 19:58 55.34028 -4.94726 7492 ft 166 kts 13°
2026-04-28 19:58 55.35157 -4.94319 7492 ft 165 kts 17°
2026-04-28 19:58 55.36272 -4.93825 7492 ft 165 kts 18°
2026-04-28 19:59 55.37386 -4.93319 7492 ft 165 kts 18°
2026-04-28 19:59 55.38500 -4.92811 7492 ft 165 kts 18°
2026-04-28 19:59 55.39236 -4.92475 7492 ft 165 kts 18°
2026-04-28 19:59 55.40348 -4.91960 7491 ft 165 kts 14°
2026-04-28 20:00 55.41448 -4.91389 7492 ft 165 kts 19°
2026-04-28 20:00 55.42580 -4.90832 7344 ft 173 kts 18°
2026-04-28 20:00 55.43763 -4.90277 7149 ft 178 kts 18°
2026-04-28 20:00 55.44974 -4.89717 6950 ft 181 kts 18°
2026-04-28 20:01 55.46179 -4.89161 6753 ft 182 kts 18°
2026-04-28 20:01 55.47411 -4.88593 6553 ft 183 kts 18°
2026-04-28 20:01 55.48640 -4.88026 6354 ft 183 kts 18°
2026-04-28 20:01 55.49874 -4.87457 6153 ft 183 kts 18°
2026-04-28 20:02 55.51110 -4.86889 5952 ft 183 kts 18°
2026-04-28 20:02 55.52340 -4.86324 5752 ft 183 kts 18°
2026-04-28 20:02 55.53558 -4.85764 5554 ft 183 kts 17°
2026-04-28 20:02 55.54789 -4.85189 5353 ft 183 kts 17°
2026-04-28 20:03 55.56016 -4.84605 5169 ft 182 kts 17°
2026-04-28 20:03 55.57228 -4.84016 5039 ft 179 kts 18°
2026-04-28 20:03 55.58423 -4.83438 4925 ft 177 kts 18°
2026-04-28 20:03 55.59612 -4.82872 4811 ft 176 kts 18°
2026-04-28 20:04 55.60790 -4.82288 4694 ft 175 kts 20°
2026-04-28 20:04 55.61891 -4.81416 4594 ft 173 kts 27°
2026-04-28 20:04 55.62955 -4.80429 4482 ft 173 kts 30°
2026-04-28 20:04 55.64027 -4.79463 4372 ft 173 kts 24°
2026-04-28 20:05 55.65121 -4.78554 4253 ft 173 kts 28°
2026-04-28 20:05 55.66190 -4.77540 4111 ft 174 kts 30°
2026-04-28 20:05 55.66880 -4.76878 4039 ft 173 kts 30°
2026-04-28 20:05 55.67930 -4.75870 3995 ft 170 kts 30°
2026-04-28 20:06 55.68958 -4.74887 3986 ft 166 kts 30°
2026-04-28 20:06 55.69973 -4.73917 3987 ft 164 kts 30°
2026-04-28 20:06 55.70972 -4.72962 3961 ft 164 kts 30°
2026-04-28 20:06 55.71979 -4.71930 3795 ft 169 kts 38°
2026-04-28 20:07 55.72821 -4.70463 3648 ft 167 kts 49°
2026-04-28 20:07 55.73306 -4.69454 3548 ft 156 kts 51°
2026-04-28 20:07 55.74162 -4.67592 3329 ft 137 kts 51°
2026-04-28 20:07 55.74753 -4.66324 3165 ft 130 kts 50°
2026-04-28 20:08 55.75313 -4.65134 3080 ft 119 kts 49°
2026-04-28 20:08 55.75842 -4.64131 3077 ft 106 kts 46°
2026-04-28 20:08 55.76365 -4.63218 2980 ft 105 kts 45°
2026-04-28 20:08 55.76893 -4.62322 2845 ft 108 kts 45°
2026-04-28 20:09 55.77442 -4.61384 2681 ft 111 kts 45°
2026-04-28 20:09 55.78000 -4.60407 2507 ft 114 kts 46°
2026-04-28 20:09 55.78564 -4.59393 2308 ft 116 kts 46°
2026-04-28 20:09 55.79129 -4.58349 2117 ft 117 kts 47°
2026-04-28 20:10 55.79689 -4.57287 1934 ft 118 kts 47°
2026-04-28 20:10 55.80245 -4.56226 1764 ft 116 kts 46°
2026-04-28 20:10 55.80791 -4.55174 1605 ft 115 kts 46°
2026-04-28 20:10 55.81331 -4.54162 1457 ft 114 kts 45°
2026-04-28 20:11 55.81866 -4.53148 1326 ft 108 kts 45°
2026-04-28 20:11 55.82367 -4.52251 1178 ft 99 kts 44°
2026-04-28 20:11 55.82838 -4.51400 1027 ft 94 kts 45°
2026-04-28 20:11 55.83275 -4.50572 902 ft 90 kts 46°
2026-04-28 20:12 55.83702 -4.49789 794 ft 87 kts 44°
2026-04-28 20:12 55.84120 -4.49031 688 ft 84 kts 45°
2026-04-28 20:12 55.84520 -4.48286 583 ft 82 kts 45°
2026-04-28 20:12 55.84784 -4.47802 513 ft 82 kts 45°
2026-04-28 20:13 55.85300 -4.46820 373 ft 80 kts 45°
2026-04-28 20:13 55.85679 -4.46125 265 ft 72 kts 44°
2026-04-28 20:13 55.86010 -4.45526 126 ft 71 kts 45°
2026-04-28 20:13 55.86341 -4.44903 62 ft 61 kts 45°
2026-04-28 20:14 55.86551 -4.44521 32 ft 17 kts 46°
2026-04-28 20:14 55.86622 -4.44394 32 ft 11 kts 45°
2026-04-28 20:14 55.86633 -4.44265 32 ft 12 kts 122°
2026-04-28 20:14 55.86616 -4.44188 32 ft 0 kts 90°
2026-04-28 20:15 55.86616 -4.44187 32 ft 0 kts 90°
2026-04-28 20:16 55.86616 -4.44163 32 ft 5 kts 90°
2026-04-28 20:17 55.86616 -4.44113 32 ft 5 kts 90°
2026-04-28 20:17 55.86616 -4.44077 32 ft 4 kts 89°
2026-04-28 20:17 55.86616 -4.44035 32 ft 0 kts 89°
2026-04-28 20:17 55.86612 -4.44015 32 ft 5 kts 125°
2026-04-28 20:18 55.86583 -4.44027 32 ft 5 kts 229°
2026-04-28 20:18 55.86568 -4.44058 32 ft 5 kts 228°
2026-04-28 20:18 55.86528 -4.44129 32 ft 4 kts 227°
2026-04-28 20:18 55.86521 -4.44144 32 ft 2 kts 225°
2026-04-28 20:19 55.86504 -4.44173 32 ft 4 kts 225°
2026-04-28 20:19 55.86483 -4.44212 32 ft 4 kts 214°
2026-04-28 20:19 55.86451 -4.44228 32 ft 5 kts 181°
2026-04-28 20:19 55.86423 -4.44202 32 ft 0 kts 138°
2026-04-28 20:20 55.86422 -4.44202 32 ft 0 kts 138°